Theta_e
327 319 318 317 314 314 313 312 317 315 317 317 316 315 314 313 312 312 312 312 313 314
323 320 317 317 315 313 315 314 313 316 316 313 311 310 309 307 309 312 311 312 312 313
320 318 317 316 315 312 313 315 314 313 311 309 308 308 307 306 309 310 311 312 312 313
317 317 316 314 313 312 312 313 313 309 308 307 307 307 306 306 307 307 310 311 311 311
315 316 313 311 311 311 310 311 309 307 307 307 307 307 306 305 306 307 309 309 311 310
314 312 309 309 310 310 310 308 307 306 306 306 307 306 307 307 306 308 310 310 309 309
310 309 308 308 308 309 308 306 306 306 306 307 307 307 307 307 309 309 310 312 311 310
310 308 308 308 309 308 306 306 306 306 306 307 308 308 307 307 308 309 310 311 311 311
308 307 307 308 308 307 306 305 305 305 306 306 308 306 306 307 308 309 310 309 310 312
307 307 308 306 306 305 305 305 305 305 306 306 306 305 304 306 307 310 310 311 311 311
307 307 306 305 305 305 305 305 305 306 306 306 307 304 301 304 308 311 311 311 311 310
307 306 305 304 305 305 305 305 306 307 306 305 306 301 301 303 310 310 310 311 311 311
308 306 304 305 305 305 306 306 306 307 307 306 307 300 300 302 311 307 308 311 310 306
307 306 305 305 305 305 306 306 305 306 308 308 307 304 299 299 309 309 309 309 309 306
Wind_Speed
5 5 6 6 7 7 7 9 9 9 5 6 7 8 8 7 7 9 9 10 8 7
5 7 7 8 7 7 7 8 10 10 7 4 5 6 7 7 9 9 10 7 9 8
7 7 8 8 7 7 9 9 9 8 4 6 8 8 8 7 8 10 9 6 6 6
7 9 8 7 8 7 9 11 7 5 7 10 8 8 7 9 9 11 11 6 4 6
9 8 10 10 10 9 9 9 6 8 10 9 8 8 8 9 9 11 9 6 2 3
9 9 9 10 11 11 9 7 9 9 9 9 8 8 8 9 9 10 6 5 2 2
9 8 9 10 11 8 7 10 10 9 9 9 8 7 8 8 9 8 5 3 3 4
10 10 10 11 6 7 8 9 10 10 9 8 7 5 7 8 8 7 5 3 5 5
10 10 10 9 10 9 10 10 10 10 9 8 5 7 9 7 6 4 3 4 3 4
10 10 9 10 11 11 11 10 10 9 8 3 4 8 6 6 6 4 3 2 2 4
11 10 9 11 11 11 9 9 8 7 3 3 3 6 6 5 5 3 1 0 2 3
12 8 11 11 11 10 8 8 8 4 4 3 1 4 7 6 4 2 1 2 5 3
9 7 11 11 11 8 8 6 6 3 2 1 1 5 5 3 1 3 3 4 8 13
5 9 10 10 9 9 9 3 5 3 3 3 4 5 4 1 4 2 3 4 5 6
Wind_Direction
6 338 327 335 321 307 302 294 312 303 320 326 345 338 332 317 296 291 292 288 283 277
2 338 321 314 304 304 304 303 301 315 318 355 323 316 311 303 294 291 284 287 275 275
350 337 312 307 309 325 310 305 309 314 338 316 304 296 298 291 290 299 288 283 276 291
337 314 318 321 322 313 312 318 319 318 299 292 288 282 281 279 290 284 277 294 273 311
324 353 347 333 321 311 299 301 302 307 297 283 275 272 269 278 281 284 283 283 296 337
337 346 323 313 301 297 302 299 293 290 279 279 272 263 260 266 269 286 273 289 176 327
341 336 322 306 296 304 312 303 292 282 279 275 271 251 255 270 273 277 265 245 247 189
340 329 315 307 308 302 302 295 288 282 274 276 269 241 239 254 269 278 267 257 210 217
326 316 314 320 320 307 301 295 292 288 280 275 281 245 236 251 292 302 255 265 207 188
321 320 334 327 319 312 309 303 300 293 283 263 276 249 223 223 261 271 285 254 244 221
327 329 332 322 315 313 313 312 306 306 304 278 287 241 179 185 246 272 221 271 190 233
322 333 329 321 318 316 313 314 312 302 291 302 295 150 143 184 219 142 119 167 59 97
320 338 325 321 319 311 308 309 322 338 335 320 164 147 161 223 13 116 106 115 85 75
347 339 323 319 314 309 308 336 329 343 18 126 117 124 144 110 327 120 120 126 111 94